Time,TemperatureF,DewpointF,PressureIn,WindDirection,WindDirectionDegrees,WindSpeedMPH,WindSpeedGustMPH,Humidity,HourlyPrecipIn,Conditions,Clouds,dailyrainin,SoftwareType,DateUTC
2013-03-07 00:01:00,30.7,30.2,29.97,North,0,1.7,-999.0,98,-99.99,,,0.00,Acu-Link.com,2013-03-07 06:01:00,
2013-03-07 00:17:00,30.7,30.2,29.98,North,0,0.0,-999.0,98,-99.99,,,0.00,Acu-Link.com,2013-03-07 06:17:00,
2013-03-07 00:32:00,30.7,30.2,29.98,North,0,1.7,-999.0,98,-99.99,,,0.00,Acu-Link.com,2013-03-07 06:32:00,
2013-03-07 00:47:00,30.0,29.5,29.99,North,0,0.0,-999.0,98,-99.99,,,0.00,Acu-Link.com,2013-03-07 06:47:00,
2013-03-07 01:02:00,30.0,29.5,29.98,North,0,1.7,-999.0,98,-99.99,,,0.00,Acu-Link.com,2013-03-07 07:02:00,
2013-03-07 01:17:00,30.2,29.7,29.98,North,0,1.7,-999.0,98,-99.99,,,0.00,Acu-Link.com,2013-03-07 07:17:00,
2013-03-07 01:32:00,30.4,29.9,29.99,North,0,2.7,-999.0,98,-99.99,,,0.00,Acu-Link.com,2013-03-07 07:32:00,
2013-03-07 01:47:00,29.5,29.0,29.98,North,0,1.7,-999.0,98,-99.99,,,0.00,Acu-Link.com,2013-03-07 07:47:00,
2013-03-07 02:02:00,28.6,28.1,29.98,North,0,0.0,-999.0,98,-99.99,,,0.00,Acu-Link.com,2013-03-07 08:02:00,
2013-03-07 02:17:00,27.7,27.2,29.99,North,0,0.0,-999.0,98,-99.99,,,0.00,Acu-Link.com,2013-03-07 08:17:00,
2013-03-07 02:33:00,27.3,26.8,29.98,North,0,0.0,-999.0,98,-99.99,,,0.00,Acu-Link.com,2013-03-07 08:33:00,
2013-03-07 02:48:00,27.0,26.5,29.98,North,0,0.0,-999.0,98,-99.99,,,0.00,Acu-Link.com,2013-03-07 08:48:00,
2013-03-07 03:03:00,26.2,25.7,29.98,North,0,0.0,-999.0,98,-99.99,,,0.00,Acu-Link.com,2013-03-07 09:03:00,
2013-03-07 03:18:00,26.4,25.9,29.98,North,0,0.0,-999.0,98,-99.99,,,0.00,Acu-Link.com,2013-03-07 09:18:00,
2013-03-07 03:33:00,25.5,25.0,29.99,North,0,1.7,-999.0,98,-99.99,,,0.00,Acu-Link.com,2013-03-07 09:33:00,
2013-03-07 03:48:00,25.3,24.8,29.98,North,0,0.0,-999.0,98,-99.99,,,0.00,Acu-Link.com,2013-03-07 09:48:00,
2013-03-07 04:03:00,25.3,24.8,29.98,North,0,0.0,-999.0,98,-99.99,,,0.00,Acu-Link.com,2013-03-07 10:03:00,
2013-03-07 04:18:00,25.0,24.5,29.99,North,0,0.0,-999.0,98,-99.99,,,0.00,Acu-Link.com,2013-03-07 10:18:00,
2013-03-07 04:33:00,24.8,24.3,30.01,North,0,0.0,-999.0,98,-99.99,,,0.00,Acu-Link.com,2013-03-07 10:33:00,
2013-03-07 04:49:00,25.5,25.0,30.00,North,0,0.0,-999.0,98,-99.99,,,0.00,Acu-Link.com,2013-03-07 10:49:00,
2013-03-07 05:04:00,25.3,24.8,30.00,North,0,0.0,-999.0,98,-99.99,,,0.00,Acu-Link.com,2013-03-07 11:04:00,
2013-03-07 05:19:00,25.3,24.8,30.00,North,0,0.0,-999.0,98,-99.99,,,0.00,Acu-Link.com,2013-03-07 11:19:00,
2013-03-07 05:34:00,25.2,24.7,30.00,North,0,0.0,-999.0,98,-99.99,,,0.00,Acu-Link.com,2013-03-07 11:34:00,
2013-03-07 05:49:00,25.2,24.7,30.02,North,0,0.0,-999.0,98,-99.99,,,0.00,Acu-Link.com,2013-03-07 11:49:00,
2013-03-07 06:04:00,25.2,24.7,30.02,North,0,0.0,-999.0,98,-99.99,,,0.00,Acu-Link.com,2013-03-07 12:04:00,
2013-03-07 06:19:00,25.2,24.7,30.02,North,0,0.0,-999.0,98,-99.99,,,0.00,Acu-Link.com,2013-03-07 12:19:00,
2013-03-07 06:34:00,26.2,25.7,30.01,North,0,0.0,-999.0,98,-99.99,,,0.00,Acu-Link.com,2013-03-07 12:34:00,
2013-03-07 06:49:00,27.1,26.6,30.03,North,0,0.0,-999.0,98,-99.99,,,0.00,Acu-Link.com,2013-03-07 12:49:00,
2013-03-07 07:04:00,28.9,28.4,30.04,North,0,0.0,-999.0,98,-99.99,,,0.00,Acu-Link.com,2013-03-07 13:04:00,
2013-03-07 07:20:00,31.1,30.6,30.04,North,0,1.7,-999.0,98,-99.99,,,0.00,Acu-Link.com,2013-03-07 13:20:00,
2013-03-07 07:35:00,32.2,31.7,30.04,North,0,1.1,-999.0,98,-99.99,,,0.00,Acu-Link.com,2013-03-07 13:35:00,
2013-03-07 07:50:00,34.2,33.7,30.03,North,0,1.7,-999.0,98,-99.99,,,0.00,Acu-Link.com,2013-03-07 13:50:00,
2013-03-07 08:05:00,35.2,34.7,30.04,North,0,4.2,-999.0,98,-99.99,,,0.00,Acu-Link.com,2013-03-07 14:05:00,
2013-03-07 08:20:00,36.7,36.2,30.04,North,0,5.3,-999.0,98,-99.99,,,0.00,Acu-Link.com,2013-03-07 14:20:00,
2013-03-07 08:35:00,39.0,38.5,30.04,North,0,3.2,-999.0,98,-99.99,,,0.00,Acu-Link.com,2013-03-07 14:35:00,
2013-03-07 08:50:00,39.4,38.9,30.04,SSW,202,6.8,-999.0,98,-99.99,,,0.00,Acu-Link.com,2013-03-07 14:50:00,
2013-03-07 09:05:00,40.3,39.8,30.05,North,0,3.7,-999.0,98,-99.99,,,0.00,Acu-Link.com,2013-03-07 15:05:00,
2013-03-07 09:21:00,40.6,40.1,30.04,NE,45,4.7,-999.0,98,-99.99,,,0.00,Acu-Link.com,2013-03-07 15:21:00,
2013-03-07 09:36:00,42.4,41.9,30.04,North,0,4.7,-999.0,98,-99.99,,,0.00,Acu-Link.com,2013-03-07 15:36:00,
2013-03-07 09:51:00,43.7,41.5,30.04,SW,225,2.2,-999.0,92,-99.99,,,0.00,Acu-Link.com,2013-03-07 15:51:00,
2013-03-07 10:06:00,45.5,42.4,30.04,ENE,67,3.7,-999.0,89,-99.99,,,0.00,Acu-Link.com,2013-03-07 16:06:00,
2013-03-07 10:21:00,43.5,41.9,30.05,East,90,2.7,-999.0,94,-99.99,,,0.00,Acu-Link.com,2013-03-07 16:21:00,
2013-03-07 10:36:00,43.2,40.8,30.05,East,90,1.7,-999.0,91,-99.99,,,0.00,Acu-Link.com,2013-03-07 16:36:00,
2013-03-07 10:51:00,47.8,43.5,30.05,NE,45,1.7,-999.0,85,-99.99,,,0.00,Acu-Link.com,2013-03-07 16:51:00,
2013-03-07 11:06:00,48.7,43.5,30.04,ENE,67,5.3,-999.0,82,-99.99,,,0.00,Acu-Link.com,2013-03-07 17:06:00,
2013-03-07 11:21:00,47.1,40.6,30.04,NNW,337,6.3,-999.0,78,-99.99,,,0.00,Acu-Link.com,2013-03-07 17:21:00,
2013-03-07 11:36:00,48.2,41.3,30.02,SE,135,3.7,-999.0,77,-99.99,,,0.00,Acu-Link.com,2013-03-07 17:36:00,
2013-03-07 11:52:00,49.5,42.3,30.02,WSW,247,7.3,-999.0,76,-99.99,,,0.00,Acu-Link.com,2013-03-07 17:52:00,
2013-03-07 12:07:00,49.1,41.5,30.02,NE,45,3.7,-999.0,75,-99.99,,,0.00,Acu-Link.com,2013-03-07 18:07:00,
2013-03-07 12:22:00,52.3,44.6,30.02,North,0,2.2,-999.0,75,-99.99,,,0.00,Acu-Link.com,2013-03-07 18:22:00,
2013-03-07 12:37:00,51.6,42.9,30.00,ESE,112,3.7,-999.0,72,-99.99,,,0.00,Acu-Link.com,2013-03-07 18:37:00,
2013-03-07 12:52:00,53.8,45.0,29.99,ESE,112,2.7,-999.0,72,-99.99,,,0.00,Acu-Link.com,2013-03-07 18:52:00,
2013-03-07 13:07:00,53.8,44.2,29.98,SSW,202,1.7,-999.0,70,-99.99,,,0.00,Acu-Link.com,2013-03-07 19:07:00,
2013-03-07 13:22:00,55.0,45.0,29.98,NNW,337,6.8,-999.0,69,-99.99,,,0.00,Acu-Link.com,2013-03-07 19:22:00,
2013-03-07 13:38:00,56.1,46.5,29.97,West,270,2.2,-999.0,70,-99.99,,,0.00,Acu-Link.com,2013-03-07 19:38:00,
2013-03-07 13:53:00,55.6,45.2,29.97,South,180,1.1,-999.0,68,-99.99,,,0.00,Acu-Link.com,2013-03-07 19:53:00,
2013-03-07 14:08:00,56.7,45.5,29.96,South,180,1.7,-999.0,66,-99.99,,,0.00,Acu-Link.com,2013-03-07 20:08:00,
2013-03-07 14:23:00,55.2,44.0,29.96,South,180,4.2,-999.0,66,-99.99,,,0.00,Acu-Link.com,2013-03-07 20:23:00,
2013-03-07 14:38:00,57.2,45.5,29.96,NW,315,2.7,-999.0,65,-99.99,,,0.00,Acu-Link.com,2013-03-07 20:38:00,
2013-03-07 14:53:00,57.4,45.3,29.97,SW,225,1.7,-999.0,64,-99.99,,,0.00,Acu-Link.com,2013-03-07 20:53:00,
2013-03-07 15:08:00,56.7,45.1,29.96,SW,225,7.3,-999.0,65,-99.99,,,0.00,Acu-Link.com,2013-03-07 21:08:00,
2013-03-07 15:23:00,58.1,45.6,29.96,NNW,337,3.7,-999.0,63,-99.99,,,0.00,Acu-Link.com,2013-03-07 21:23:00,
2013-03-07 15:39:00,57.0,44.9,29.96,SE,135,2.7,-999.0,64,-99.99,,,0.00,Acu-Link.com,2013-03-07 21:39:00,
2013-03-07 15:54:00,56.8,44.3,29.96,NNW,337,4.7,-999.0,63,-99.99,,,0.00,Acu-Link.com,2013-03-07 21:54:00,
2013-03-07 16:09:00,57.2,43.9,29.96,West,270,2.7,-999.0,61,-99.99,,,0.00,Acu-Link.com,2013-03-07 22:09:00,
2013-03-07 16:24:00,56.5,43.2,29.96,East,90,3.7,-999.0,61,-99.99,,,0.00,Acu-Link.com,2013-03-07 22:24:00,
2013-03-07 16:39:00,56.1,44.5,29.96,West,270,1.7,-999.0,65,-99.99,,,0.00,Acu-Link.com,2013-03-07 22:39:00,
2013-03-07 16:54:00,55.0,43.9,29.96,North,0,0.0,-999.0,66,-99.99,,,0.00,Acu-Link.com,2013-03-07 22:54:00,
2013-03-07 17:09:00,53.8,44.2,29.96,NNE,22,4.2,-999.0,70,-99.99,,,0.00,Acu-Link.com,2013-03-07 23:09:00,
2013-03-07 17:24:00,52.3,43.9,29.97,North,0,0.0,-999.0,73,-99.99,,,0.00,Acu-Link.com,2013-03-07 23:24:00,
2013-03-07 17:39:00,51.1,43.8,29.97,North,0,0.0,-999.0,76,-99.99,,,0.00,Acu-Link.com,2013-03-07 23:39:00,
2013-03-07 17:55:00,49.3,43.4,29.97,North,0,0.0,-999.0,80,-99.99,,,0.00,Acu-Link.com,2013-03-07 23:55:00,
2013-03-07 18:10:00,47.3,43.9,29.98,North,0,0.0,-999.0,88,-99.99,,,0.00,Acu-Link.com,2013-03-08 00:10:00,
2013-03-07 18:25:00,45.5,45.0,29.99,North,0,0.0,-999.0,98,-99.99,,,0.00,Acu-Link.com,2013-03-08 00:25:00,
2013-03-07 18:40:00,43.5,43.0,30.00,North,0,0.0,-999.0,98,-99.99,,,0.00,Acu-Link.com,2013-03-08 00:40:00,
2013-03-07 18:55:00,42.4,41.9,30.00,North,0,0.0,-999.0,98,-99.99,,,0.00,Acu-Link.com,2013-03-08 00:55:00,
2013-03-07 19:10:00,41.9,41.4,29.99,North,0,0.0,-999.0,98,-99.99,,,0.00,Acu-Link.com,2013-03-08 01:10:00,
2013-03-07 19:25:00,40.1,39.6,29.99,North,0,1.7,-999.0,98,-99.99,,,0.00,Acu-Link.com,2013-03-08 01:25:00,
2013-03-07 19:40:00,39.6,39.1,29.99,North,0,0.0,-999.0,98,-99.99,,,0.00,Acu-Link.com,2013-03-08 01:40:00,
2013-03-07 19:55:00,38.7,38.2,30.00,North,0,1.7,-999.0,98,-99.99,,,0.00,Acu-Link.com,2013-03-08 01:55:00,
2013-03-07 20:10:00,38.1,37.6,29.99,North,0,0.0,-999.0,98,-99.99,,,0.00,Acu-Link.com,2013-03-08 02:10:00,
2013-03-07 20:26:00,37.0,36.5,29.99,North,0,0.0,-999.0,98,-99.99,,,0.00,Acu-Link.com,2013-03-08 02:26:00,
2013-03-07 20:41:00,36.1,35.6,29.99,North,0,0.0,-999.0,98,-99.99,,,0.00,Acu-Link.com,2013-03-08 02:41:00,
2013-03-07 20:56:00,35.2,34.7,30.00,North,0,0.0,-999.0,98,-99.99,,,0.00,Acu-Link.com,2013-03-08 02:56:00,
2013-03-07 21:11:00,34.9,34.4,29.99,North,0,0.0,-999.0,98,-99.99,,,0.00,Acu-Link.com,2013-03-08 03:11:00,
2013-03-07 21:26:00,34.2,33.7,29.99,North,0,0.0,-999.0,98,-99.99,,,0.00,Acu-Link.com,2013-03-08 03:26:00,
2013-03-07 21:41:00,33.6,33.1,29.99,North,0,0.0,-999.0,98,-99.99,,,0.00,Acu-Link.com,2013-03-08 03:41:00,
2013-03-07 21:57:00,33.1,32.6,29.99,North,0,0.0,-999.0,98,-99.99,,,0.00,Acu-Link.com,2013-03-08 03:57:00,
2013-03-07 22:12:00,33.1,32.6,29.98,North,0,0.0,-999.0,98,-99.99,,,0.00,Acu-Link.com,2013-03-08 04:12:00,
2013-03-07 22:27:00,32.9,32.4,29.99,North,0,1.7,-999.0,98,-99.99,,,0.00,Acu-Link.com,2013-03-08 04:27:00,
2013-03-07 22:42:00,34.5,34.0,29.99,North,0,2.2,-999.0,98,-99.99,,,0.00,Acu-Link.com,2013-03-08 04:42:00,
2013-03-07 22:57:00,36.5,36.0,29.99,North,0,2.7,-999.0,98,-99.99,,,0.00,Acu-Link.com,2013-03-08 04:57:00,
2013-03-07 23:12:00,36.9,36.4,30.00,North,0,3.2,-999.0,98,-99.99,,,0.00,Acu-Link.com,2013-03-08 05:12:00,
2013-03-07 23:28:00,37.2,36.7,30.00,North,0,2.2,-999.0,98,-99.99,,,0.00,Acu-Link.com,2013-03-08 05:28:00,
2013-03-07 23:43:00,37.0,36.5,30.00,North,0,2.7,-999.0,98,-99.99,,,0.00,Acu-Link.com,2013-03-08 05:43:00,
2013-03-07 23:58:00,36.1,35.6,30.00,North,0,2.2,-999.0,98,-99.99,,,0.00,Acu-Link.com,2013-03-08 05:58:00,